sat.trackr.live / text

‹ back to catalog

QIANFAN-135

NORAD 69081 · 2026-104J

PAYLOAD ACTIVE UNKNOWN

§ Identity

Operator
Country
PRC
Launch date
2026-05-12
Launch site
TAISC
Launch vehicle
Mass (kg)
RCS (m²)

External: N2YO · Heavens-Above · Gunter

§ Orbital elements

Epoch: 2026-05-24T20:08:22.576416Z

Period
101.39 min
Inclination
88.9870°
Eccentricity
0.0002775
Mean motion
14.20302891 rev/d
Perigee alt
822.3 km
Apogee alt
826.3 km
Semi-major
7,202.5 km
B*
2.8174e-5
RAAN
344.2879°
Arg perigee
191.4733°
Mean anomaly
168.6395°
Rev number
177

§ Raw data

QIANFAN-1351 69081U 26104J   26144.83915019  .00000075  00000+0  28174-4 0  99972 69081  88.9870 344.2879 0002775 191.4733 168.6395 14.20302891  1775

JSON: /api/v1/satellites/69081 · /tle

For live sub-satellite position, see the globe view (requires WebGL).

§ Visibility from observer

Set your observer location to see the next 7 days of passes ≥ 10°. The values pass through the URL so the page stays shareable.

No JS? Fill the form by hand. The geolocation button needs JavaScript.